Погода Горно-Алтайск

Погода Горно-Алтайск : погода сейчас, прогноз погоды и архив. Всё, что Вы хотите узнать о погоде Горно-Алтайск!

Хотите узнать прогноз погоды Горно-Алтайск? Тогда Вам сюда: Погода Горно-Алтайск

Поиск расширенной информации на нашем сайте:

Другие новости

Новости СМИ2

Главная страница сайта

Новости сайта

03.07.2017

Напоминаем, что на нашем специализированном сайте Метеоцентр.Азия вы можете получить высокодетализированные автоматические прогнозы погоды по пунктам России, СНГ и мира в авиационном формате (включающие направление и скорость ветра, видимость, явления погоды, количество и форму облачности, нижнюю и верхнюю границу облачности).


Погода Горно-Алтайск - сегодня

Время (UTC), дата Ветер
(°,м/с) 
Видим.   Явления Облачность Т
(°С)
Тd
(°С)
f(%) Тe
(°С)
Pmin
(гПа)
dP
(гПа)
Po
(мм)
O2
(г/м3)
Тmin Tmax R s Состояние
почвы
18 18.09.17 100 (В) 10 км    ясно 
+15.7 +13.2 85 +22  1010.7  0.5  733  276           
21 18.09.17 230 (ЮЗ) 10 км    ясно 
+13.6 +13.4 99 +21  1010.4  -0.5  732  278           
00 19.09.17 260 (З) 10 км  {ливн. осадки}  10/10 1000 м кучево-дожд. 
[Cb calv]
+12.5 +12.5 100 +18  1011  0.5  732  280           
03 19.09.17 300 (СЗ) 10 км    9/8 300 м кучево-дожд. 
[Cb calv]
+13.6 +12.2 91 +18  1012.5  1.6  733  279  +12.4         
06 19.09.17 300 (СЗ) 10 км    8/4 1000 м кучево-дожд., верхняя 
[Cb calv|Ci fib]
+16.1 +7.8 58 +16  1013.1  0.8  734  278           
12 19.09.17 210 (ЮЗ) 3{14}  10 км  слаб. ливневой дождь  ясно 
+11.4 +7.3 76 +11  1015  0.5  736  283           
15 19.09.17 230 (ЮЗ) 3{13}  10 км  слаб. ливневой дождь  ясно 
+10 +6.5 79 +10  1017.5  2.8  737  285    +18.2       
18 19.09.17 240 (ЮЗ) 3{13}  10 км  слаб. ливневой дождь  ясно 
+8.6 +7.5 93 +8  1019.3  738  286           
21 19.09.17 240 (ЮЗ) 10 км  слаб. ливневой дождь  ясно 
+8.3 +6.1 86 +8  1020.3  0.8  739  287           
00 20.09.17 270 (З) 10 км  слаб. ливневой дождь  ясно 
+7.9 +7.3 96 +8  1022.1  1.9  740  288           
06 20.09.17 280 (З) 9000 м  слаб. ливневой дождь  9/8 600 м кучево-дожд., средняя 
[Cb cap|Ac und]
+8.7 +6.8 88 +8  1024.1  -0.1  741  288           
09 20.09.17 260 (З) 10 км    8/6 1000 м кучево-дожд., средняя 
[Cb calv|Ac und]
+10.8 +4.9 67 +10  1024  0.7  742  287           
12 20.09.17 нст () 10 км    ясно 
+9.7 +7.1 84 +11  1024.2  0.2  742  287           
15 20.09.17 нст () 10 км    ясно 
+8.7 +7.8 94 +10  1023.9  -0.1  742  288    +11.6       
18 20.09.17 нст () 10 км    ясно 
+7.4 +7.1 98 +8  1020.5  -3  739  288           
21 20.09.17 тихо ()   10 км    ясно 
+8 +7.9 99 +8  1017.5  -3.2  737  286           
00 21.09.17 210 (ЮЗ) 10 км    ясно 
+9.4 +8 91 +9  1014  -2.9  735  284           
12 21.09.17 190 (Ю) 6{13}  10 км    ясно 
+12.7 +11.6 93 +16  1008.2  -0.6  731  278           
15 21.09.17 200 (Ю) 10 км    ясно 
+11.6 +10.2 91 +13  1007.8  -0.4  730  280    +15.2       
18 21.09.17 280 (З) 5-10{11}  10 км    ясно 
+13.3 +11.2 87 +16  1007.5  -0.6  730  278           
21 21.09.17 280 (З) 8-13{13}  10 км    ясно 
+11.1 +8.3 83 +9  1008.1  0.8  731  281           
00 22.09.17 290 (З) 6-11{14}  10 км    ясно 
+9.2 +7.2 87 +7  1010.4  1.8  732  283           
12 22.09.17 290 (З) 3{12}  10 км  слаб. ливневой дождь  ясно 
+8.7 +5.1 78 +8  1015.2  1.5  735  285           
15 22.09.17 нст () 10 км  слаб. ливневой дождь  ясно 
+8 +5.5 84 +9  1015.5  0.6  736  286    +10.9       
18 22.09.17 нст () 10 км  слаб. ливневой дождь  ясно 
+7 +6.9 99 +8  1014.3  -0.9  735  287           
Время (UTC), дата Ветер
(°,м/с) 
Видим.   Явления Облачность Т
(°С)
Тd
(°С)
f(%) Тe
(°С)
Pmin
(гПа)
dP
(гПа)
Po
(мм)
O2
(г/м3)
Тmin Tmax R s Состояние
почвы

Для получения пояснительной информации подведите курсор к названию столбца.

ПОГОДА Горно-Алтайск - архив

Всё, что Вы хотите узнать о погоде Горно-Алтайск - удобно и подробно!

Выберите нужную дату (начиная с 1 января 2015* года) и нажмите кнопку "Найти".
Будут отображены архивные сводки погоды по пункту Горно-Алтайск, начиная с указанной даты.


Отображать данные в формате CSV (для использования в таблицах Excel)


Внимание! Наш архив погоды предназначен исключительно для личного некоммерческого использования в познавательных целях. Если Вам необходимы официальные справки о состоянии погоды (для производственных, юридических, коммерческих и т.п. целей), обращайтесь в органы Росгидромета.

*Примечание: данная дата относится к архиву по метеостанциям СССР (Россия, СНГ, Балтия).
Архив по метеостанциям Зарубежной Европы и Азии (кроме Китая) хранится 10 дней, по другим регионам земного шара (Китай, Африка, Америка, Австралия, Океания) - 1 день.

Горно-Алтайск - район местоположения метеостанции


Название, широта, долгота, высота метеостанции:
Горно-Алтайск 52°ш. 85.9°д. 286 м над ур. моря [Российская Федерация]

Дополнительная информация

В oтличие oт бoльшинства пoгoдных сайтoв мы публикуем пoдрoбную метеoинфoрмацию в детальнoм прoфессиoнальнoм фoрмате.

Характеристики температуры и влажнoсти вoздуха измеряются на высoте 2 м в тени вдали oт зданий и деревьев.
Скoрoсть ветра измеряется на высoте 10 м (на урoвне рoста челoвека скoрoсть ветра ниже в 1.5-2 раза). Если метеoстанция нахoдится в гoрoде или в лесу, тo скoрoсть ветра занижена на 2-4 м/с пo сравнению с oткрытым местoм. Скoрoсть ветра над акватoриями крупных рек и oзёр, а также на вершинах хoлмoв на 2-5 м/с выше, чем в oбычных услoвиях.
Атмoсфернoе давление в разных тoчках местнoсти мoжет значительнo oтличаться oт давления на метеoстанции, в зависимoсти oт услoвий рельефа (при пoдъёме на 10 м давление пoнижается примернo на 1 мм рт.ст.).